Terminal Aerodrome Forecast
Issued by NWS Greer, SC

Home | Current Version | Previous Version | Text Only | Print | Product List | Glossary On
Versions: 1 2 3 4 5 6 7 8 9 10 11 12 13 14 15 16 17 18 19 20 21 22 23 24 25 26 27 28 29 30 31 32 33 34 35
000
FTUS42 KGSP 190521
TAFAVL
TAF
KAVL 190521Z 1906/2006 34007KT P6SM SCT045
     FM191200 33007KT P6SM FEW045 SCT250
     FM200300 34003KT P6SM -RASN BKN060=

USA.gov is the U.S. government's official web portal to all federal, state and local government web resources and services.